SCP
0 0 0 0 0 0 0 0 0 0 0 0 0 0 0 0 0 0 0 0 0 0 0 0 0 0 0 0 0 0 0 0 0 0 0 0 0 0 0 0 0 0 0 0 0 0 0
0 0 0 0 0 0 0 0 0 0 0 0 0 0 0 0 0 0 0 0 0 0 0 0 0 0 0 0 0 0 0 0 0 0 0 0 0 0 0 0 0 0 0 0 0 0 0
0 0 0 0 0 0 0 0 0 0 0 0 0 0 0 0 0 0 0 0 0 0 0 0 0 0 0 0 0 0 0 0 0 0 0 0 0 0 0 0 0 0 0 0 0 0 0
0 0 0 0 0 0 0 0 0 0 0 0 0 0 0 0 0 0 0 0 0 0 0 0 0 0 0 0 0 0 0 0 0 0 0 0 0 0 0 0 0 0 0 0 0 0 0
0 0 0 0 0 0 0 0 0 0 0 0 0 0 0 0 0 0 0 0 0 0 0 0 0 0 0 0 0 0 0 0 0 0 0 0 0 0 0 0 0 0 0 0 0 0 0
0 0 0 0 0 0 0 0 0 0 0 0 0 0 0 0 0 0 0 0 -0 -0 0 0 0 0 0 0 0 0 0 0 0 0 0 0 0 0 0 0 0 0 0 0 0 0 0
0 0 0 0 0 0 0 0 0 0 0 0 0 0 0 0 0 0 0 0 0 0 0 0 0 0 0 0 0 0 0 0 0 0 0 0 0 0 0 0 0 0 0 0 0 0 0
0 0 0 0 0 0 0 0 0 0 0 0 0 0 0 0 0 0 0 0 0 0 0 0 0 0 0 0 0 0 0 0 0 0 0 0 0 0 0 0 0 0 0 0 0 0 0
0 0 0 0 0 0 0 0 0 0 0 0 0 0 0 0 0 0 0 0 0 0 0 0 0 0 0 0 0 0 0 0 0 0 0 0 0 0 0 0 0 0 0 0 0 0 0
0 0 0 0 0 0 0 0 0 0 0 0 0 0 0 0 0 0 0 0 0 0 0 0 -0 0 0 0 0 0 0 0 0 0 0 0 0 0 0 0 0 0 0 0 0 0 0
0 0 0 0 0 0 0 0 0 0 0 0 0 0 0 0 0 0 0 0 0 0 0 0 -0 0 0 0 0 0 0 0 0 0 0 0 0 0 0 0 0 0 0 0 0 0 0
0 0 0 0 0 0 0 0 0 0 0 0 0 0 0 0 0 0 0 0 0 0 0 0 0 0 0 0 0 0 0 0 0 0 0 0 0 0 0 0 0 0 0 0 0 0 0
0 0 0 0 0 0 0 0 0 0 0 0 0 0 0 0 0 0 0 0 0 0 0 0 0 0 0 0 0 0 0 0 0 0 0 0 0 0 0 0 0 0 0 0 0 0 0
0 0 0 0 0 0 0 0 0 0 0 0 0 0 0 0 0 0 0 0 0 0 0 0 0 0 0 0 0 0 0 0 0 0 0 0 0 0 0 0 0 0 0 0 0 0 0
0 0 0 0 0 0 0 0 0 0 0 0 0 0 0 0 0 0 0 0 0 0 0 0 0 0 0 0 -0 0 -0 0 0 0 0 0 0 0 0 0 0 0 0 0 0 0 0
0 0 0 0 0 0 0 0 0 0 0 0 0 0 0 0 0 0 0 0 0 0 0 0 0 0 0 0 0 0 0 -0 0 0 0 0 0 0 0 0 0 0 0 0 0 0 0
0 0 0 0 0 0 0 0 0 0 0 0 0 0 0 0 0 0 0 0 0 0 0 0 0 0 0 0 0 -0 0 0 0 0 0 0 0 0 0 0 0 0 0 0 0 0 0
0 0 0 0 0 0 0 0 0 0 0 0 0 0 0 0 0 0 0 0 0 0 -0 0 0 0 0 0 0 0 -0 -0 -0 -0 -0 0 0 0 0 0 0 0 0 0 0 0 0
0 0 0 0 0 0 0 0 0 0 0 0 0 0 0 -0 0 0 -0 0 0 0 0 0 0 0 0 0 0 0 0 0 0 -0 0 -0 0 0 0 0 0 0 0 0 0 0 0
0 0 0 0 0 0 -0 0 0 0 0 0 0 0 -0 0 0 -0 -0 -0 -0 -0 -0 0 0 0 0 0 0 -0 -0 0 0 0 0 -0 0 0 0 0 0 0 0 0 0 0 0
0 0 0 0 0 -0 -0 0 0 0 0 0 0 0 0 0 0 0 -0 -0 -0 0 -0 0 0 0 0 0 -0 -0 -0 0 0 0 0 0 0 0 0 0 0 0 0 0 0 0 0
0 0 0 0 0 -0 0 0 0 0 0 0 0 0 -0 0 0 -0 0 -0 0 -0 0 0 0 0 0 0 0 0 0 0 0 0 0 0 0 0 0 0 0 0 0 0 0 0 0
0 0 0 0 0 0 -0 0 0 0 0 0 0 0 0 -0 -0 -0 -0 0 0 0 -0 -0 0 0 0 0 0 0 0 0 0 0 0 0 0 0 0 0 0 0 0 0 0 0 0
0 0 0 0 0 0 -0 0 0 0 0 0 0 0 0 0 0 -0 -0 -0 -0 -0 0 0 0 0 0 0 -0 -0 0 0 0 0 0 0 0 0 0 0 0 0 0 0 0 0 0
0 0 0 0 0 0 -0 0 0 0 0 0 0 0 0 -0 -0 -0 0 0 -0 0 -0 -0 0 0 0 -0 0 -0 0 0 0 0 0 0 0 0 0 0 0 0 0 0 0 0 0
0 0 0 0 0 -0 -0 0 0 0 0 -0 0 0 0 -0 -0 -0 -0 -0 -0 0 -0 0 0 0 -0 -0 0 0 0 0 0 0 0 0 0 0 0 0 0 0 0 0 0 0 0
0 0 -0 -0 0 -0 0 0 0 -0 0 0 0 0 0 -0 -0 -0 -0 0 0 0 0 0 0 -0 -0 0 0 0 0 0 0 0 0 0 0 0 0 0 0 0 0 0 0 0 0
0 0 0 0 -0 0 0 0 0 -0 0 0 0 0 0 -0 -0 -0 -0 -0 -0 0 0 0 -0 -0 0 -0 0 0 0 0 0 0 0 0 0 0 0 0 0 0 0 0 0 0 0
0 0 0 0 0 0 0 0 -0 0 0 0 0 0 0 0 -0 -0 -0 -0 -0 0 -0 -0 0 0 -0 0 0 0 -0 0 0 0 0 0 0 0 0 0 0 0 0 0 0 0 0
Wind_Speed_500mb
36 38 39 41 41 42 43 44 44 45 47 45 45 45 43 53 52 51 52 57 54 47 39 39 39 41 39 28 50 45 35 37 24 23 42 38 39 45 37 26 42 39 38 28 44 25 36
38 41 44 42 43 44 45 43 40 44 44 48 42 43 43 46 53 55 62 59 57 53 43 38 37 42 51 37 38 45 44 35 36 36 40 43 32 48 32 42 36 18 46 38 31 43 29
41 42 44 48 47 46 47 47 48 49 46 48 50 45 46 49 52 57 60 64 67 56 48 44 42 45 66 75 36 39 29 32 37 38 39 44 48 24 18 33 44 32 28 24 33 38 32
43 45 44 43 44 46 49 50 51 52 53 53 54 55 55 54 57 60 62 66 68 64 57 46 45 48 68 54 54 57 46 50 39 39 36 27 35 39 40 13 5 22 31 38 33 42 20
42 43 44 45 53 55 54 56 57 57 56 56 58 61 62 61 60 64 68 73 70 68 61 47 48 49 37 28 58 71 71 59 45 38 37 23 26 34 26 26 24 29 27 39 40 23 27
42 49 48 48 49 51 54 57 59 58 60 61 61 62 64 67 67 66 72 74 74 46 40 36 41 27 37 25 37 41 50 52 32 27 18 24 23 21 31 30 34 29 34 39 34 23 34
42 45 50 47 49 52 55 55 58 55 64 65 62 62 63 65 69 70 68 69 40 30 18 28 30 34 39 19 33 30 31 43 39 34 29 35 18 39 57 49 41 42 40 42 38 31 28
37 40 45 45 51 49 52 53 59 58 63 64 63 63 63 63 64 67 54 31 41 38 29 56 63 76 70 53 13 33 34 40 38 38 42 14 43 61 41 39 45 45 44 53 37 8 14
41 43 43 44 62 54 54 57 62 59 64 64 63 62 63 61 63 47 27 43 47 45 16 52 70 70 92 53 40 30 49 52 38 46 42 47 52 42 44 39 44 47 49 44 41 12 22
45 44 49 47 55 58 55 60 63 64 63 65 64 62 66 63 45 32 52 32 36 43 13 34 28 31 65 73 42 65 63 34 14 28 52 35 60 43 47 53 50 46 48 43 34 20 25
47 50 53 56 54 57 57 66 68 64 68 69 68 64 63 51 59 49 44 44 41 33 17 16 30 10 7 64 42 43 68 64 22 23 13 29 38 45 37 59 51 39 27 26 35 31 23
50 49 56 56 57 59 64 69 64 67 72 74 70 67 65 59 52 53 45 35 31 13 22 10 6 1 11 33 30 17 46 50 21 24 16 31 15 33 42 38 38 3 5 5 2 9 18
51 51 58 58 56 60 68 65 69 71 73 77 72 70 68 60 59 48 39 23 15 16 20 15 35 29 11 12 14 19 18 23 23 16 26 18 12 5 10 20 9 23 19 9 11 11 15
53 54 57 60 62 64 63 65 67 75 77 78 79 79 78 59 50 37 31 11 36 22 24 33 43 35 25 10 14 7 15 35 41 40 26 31 20 25 22 22 21 50 39 15 18 14 15
54 55 58 64 64 61 67 69 70 76 81 89 83 90 66 55 41 29 23 23 23 27 33 30 33 38 35 33 14 11 13 10 16 43 29 19 25 22 40 24 35 15 26 13 6 2 2
54 59 63 64 65 64 68 72 72 78 78 88 93 65 57 25 17 31 13 45 25 32 38 30 33 13 14 13 12 13 11 10 9 21 45 17 29 29 17 10 4 13 25 9 9 11 12
58 59 61 62 62 63 69 67 68 73 74 80 65 21 25 25 17 17 16 25 22 37 36 12 27 39 39 39 19 13 11 14 15 9 21 6 9 9 18 19 35 13 12 11 4 8 9
60 62 62 62 65 64 68 69 71 73 67 67 27 12 25 28 11 12 15 7 7 14 24 23 26 33 31 23 29 24 31 33 14 8 8 13 5 7 16 9 8 29 14 28 14 14 9
62 62 61 65 64 68 69 71 71 65 63 58 19 34 23 18 11 16 23 13 13 14 21 9 10 11 8 18 10 15 23 12 25 12 9 8 8 9 1 2 1 12 14 23 5 5 22
60 62 66 65 66 69 70 73 68 65 65 45 12 9 16 20 26 26 30 25 16 20 24 19 21 24 20 17 20 19 27 16 8 18 25 9 8 11 12 2 6 17 29 26 21 13 16
64 67 65 65 63 68 70 68 67 62 53 33 6 9 14 12 18 28 33 24 33 13 13 8 7 17 22 10 8 17 26 22 8 13 11 8 9 9 3 1 7 4 23 32 31 37 20
63 63 68 68 65 70 72 68 64 55 47 32 11 14 16 35 36 27 29 10 25 25 7 12 20 22 16 16 20 31 34 23 19 11 8 7 4 7 6 4 7 9 18 31 39 37 35
64 65 66 62 70 72 71 66 65 53 44 31 25 34 21 23 24 17 16 11 14 11 16 25 18 18 17 21 17 33 35 25 16 10 12 6 7 8 4 1 4 13 22 26 25 26 32
66 69 69 65 72 72 73 71 62 52 43 39 37 36 21 17 17 25 33 35 35 29 26 31 23 9 8 22 28 17 10 5 0 6 5 4 7 3 5 5 9 5 3 3 25 2 16
62 70 71 71 73 78 71 69 57 51 44 40 36 34 18 15 22 31 28 22 33 26 25 27 35 23 22 15 8 10 8 7 3 7 7 4 6 6 7 10 6 4 5 6 3 3 8
64 71 73 74 73 74 71 64 55 54 51 40 37 34 29 11 6 11 21 31 12 14 15 7 17 17 11 6 5 6 2 5 2 1 2 3 5 3 4 7 4 6 9 9 6 2 12
65 72 76 75 75 74 68 60 59 62 53 37 35 28 25 13 31 14 9 11 10 8 9 9 13 8 10 5 6 4 1 5 2 6 6 3 4 3 1 4 7 8 9 8 2 7 6
64 74 78 77 76 68 62 57 61 63 38 28 25 25 26 15 33 18 16 11 12 7 9 15 14 6 5 7 5 4 4 3 2 2 5 7 6 3 0 3 5 2 2 6 5 3 4
69 75 80 79 70 63 55 50 46 33 7 14 19 21 19 39 17 20 19 18 14 12 11 10 13 12 10 6 2 1 2 2 4 3 2 2 7 6 9 7 2 4 2 6 4 6 10
Wind_Direction_500mb
26 23 19 10 10 7 2 2 4 358 356 350 348 351 348 339 341 335 330 323 313 308 293 289 273 271 273 252 251 277 269 281 278 223 214 207 210 213 228 235 248 234 254 246 237 229 228
19 19 16 11 8 4 2 0 1 359 355 352 348 341 340 336 332 330 328 324 322 313 294 282 262 263 249 249 257 256 272 265 255 226 214 211 217 223 254 249 236 220 248 244 241 233 232
16 15 13 6 5 1 1 359 357 358 356 353 349 343 332 325 325 324 323 319 316 308 297 279 260 254 242 245 259 266 268 263 245 232 225 221 219 216 225 255 241 244 254 240 238 234 233
11 9 8 2 358 357 355 353 351 351 350 349 347 346 339 334 326 320 314 314 311 309 294 280 265 252 249 259 262 248 260 250 246 236 228 236 221 230 240 260 216 233 237 250 234 216 217
1 358 0 359 356 356 353 348 345 344 344 343 342 340 337 335 328 323 319 312 310 306 295 278 269 244 254 250 238 254 254 239 240 230 223 227 206 221 198 222 233 220 242 229 241 213 190
356 0 0 359 352 348 343 340 337 341 338 335 335 334 332 331 328 326 320 320 316 310 287 273 251 260 235 223 238 236 233 219 207 191 197 200 203 216 218 208 220 219 221 242 238 181 209
355 352 351 348 346 342 337 338 336 334 331 333 334 334 330 325 325 323 321 325 334 312 294 256 278 246 276 224 235 234 205 195 203 198 198 194 208 217 221 218 230 241 243 239 245 244 211
351 345 341 339 342 338 333 332 331 330 329 332 333 335 331 324 321 319 319 311 310 302 282 273 268 271 262 262 271 227 192 185 194 209 209 169 221 228 234 238 232 240 248 253 259 196 223
343 338 332 333 338 332 331 330 327 327 325 325 330 332 330 323 315 322 314 313 314 310 268 278 259 254 253 246 231 223 194 204 205 220 207 205 224 220 234 231 237 230 232 239 248 189 242
339 332 328 329 335 334 330 327 326 322 324 327 329 331 330 329 321 309 310 308 313 322 273 270 240 252 232 226 244 219 211 213 226 225 221 226 245 237 220 224 219 232 227 237 237 244 245
326 325 330 326 325 329 332 328 321 325 323 323 326 325 324 323 305 300 301 300 310 313 266 269 223 240 242 208 211 212 209 209 200 197 161 209 234 221 217 223 210 235 233 238 234 234 246
330 328 321 327 328 329 327 324 322 321 323 322 321 319 318 314 302 295 289 290 305 234 249 275 289 246 269 207 235 247 183 200 221 224 204 246 273 219 208 223 220 139 93 79 159 206 229
329 328 320 324 327 326 323 324 320 323 323 321 319 316 308 306 290 295 285 295 253 234 329 260 264 260 257 274 243 200 183 178 184 192 206 195 208 204 216 194 135 160 155 202 204 205 230
326 323 320 317 325 326 324 319 321 321 322 322 317 312 303 297 296 284 266 233 256 258 255 279 299 293 274 295 255 221 212 204 216 225 240 218 211 167 187 193 180 191 194 208 217 203 218
326 325 324 323 319 324 319 322 323 321 323 324 320 313 296 296 287 271 223 245 245 254 256 278 297 283 278 261 211 272 226 261 227 214 223 228 235 182 177 187 169 163 211 222 133 210 191
326 325 321 324 324 322 321 325 326 322 326 326 323 310 297 299 285 239 246 231 244 256 278 292 277 269 277 322 287 220 207 179 232 222 231 245 254 197 166 141 295 201 161 173 213 185 224
325 325 322 323 319 321 321 324 324 326 327 327 338 318 299 294 276 227 246 264 258 265 268 273 263 264 268 283 293 340 306 298 223 202 223 276 253 121 143 204 177 172 169 203 209 223 216
324 324 326 322 324 319 321 322 324 324 325 328 334 302 297 299 286 242 255 213 194 253 262 246 256 261 271 284 293 289 256 238 187 187 211 202 329 174 229 357 326 234 200 192 205 196 244
324 324 323 321 323 321 322 323 326 326 329 323 298 297 281 277 281 287 292 246 237 237 244 252 277 271 235 270 278 303 297 309 279 224 239 157 204 166 57 295 296 217 199 215 196 80 202
323 321 321 321 321 323 323 324 328 325 323 314 304 299 270 219 259 269 284 288 264 232 260 250 262 282 285 258 249 262 276 302 305 247 254 172 229 253 232 320 142 205 203 205 205 205 193
323 325 322 320 319 320 321 323 326 324 327 316 265 269 288 288 292 303 297 282 281 280 219 235 251 248 270 275 276 254 270 297 228 246 225 229 248 210 106 25 309 289 210 198 212 220 209
320 323 320 321 318 319 322 324 323 321 322 306 262 292 285 286 286 286 291 284 296 298 224 264 235 274 255 267 274 295 292 292 280 191 221 200 219 156 215 177 235 241 231 206 212 228 238
324 321 320 322 317 320 322 322 318 319 320 292 281 293 274 287 294 289 294 298 300 326 277 256 293 300 282 274 283 290 271 276 266 295 212 216 186 170 169 168 203 259 235 201 219 231 231
319 317 321 319 318 322 322 319 314 310 306 291 284 285 267 294 291 293 292 301 297 293 292 292 298 277 324 316 298 262 245 225 252 49 340 275 210 212 96 196 232 34 307 345 226 117 267
318 318 322 322 322 321 319 318 314 310 304 289 281 273 268 285 298 292 309 310 302 288 282 288 284 278 302 312 259 238 197 221 156 46 9 316 177 162 213 209 345 134 52 50 169 146 357
318 318 322 322 323 319 319 316 315 308 301 291 273 273 268 290 291 319 295 292 312 318 295 242 296 296 291 258 280 289 339 356 356 40 5 46 39 320 196 239 215 14 23 43 302 345 352
318 318 321 323 322 320 320 317 313 303 294 276 267 259 263 261 284 285 301 336 314 294 278 286 334 286 241 266 270 271 203 333 333 343 353 14 33 14 286 357 76 19 49 43 91 22 355
321 318 322 323 321 321 320 320 320 321 265 249 257 255 241 258 287 270 282 301 307 289 307 345 305 189 248 248 296 37 294 88 262 30 350 338 331 55 333 227 105 100 168 321 349 327 309
319 321 323 322 319 320 320 324 331 342 320 241 250 268 259 250 275 289 278 277 277 292 303 302 299 294 347 289 53 303 266 252 0 55 174 35 22 7 0 32 12 244 353 322 317 342 342
Wind_Speed_850mb
36 38 39 41 41 42 43 44 44 45 47 45 45 45 43 53 52 51 52 57 54 47 39 39 39 41 39 28 50 45 35 37 24 23 42 38 39 45 37 26 42 39 38 28 44 25 36
38 41 44 42 43 44 45 43 40 44 44 48 42 43 43 46 53 55 62 59 57 53 43 38 37 42 51 37 38 45 44 35 36 36 40 43 32 48 32 42 36 18 46 38 31 43 29
41 42 44 48 47 46 47 47 48 49 46 48 50 45 46 49 52 57 60 64 67 56 48 44 42 45 66 75 36 39 29 32 37 38 39 44 48 24 18 33 44 32 28 24 33 38 32
43 45 44 43 44 46 49 50 51 52 53 53 54 55 55 54 57 60 62 66 68 64 57 46 45 48 68 54 54 57 46 50 39 39 36 27 35 39 40 13 5 22 31 38 33 42 20
42 43 44 45 53 55 54 56 57 57 56 56 58 61 62 61 60 64 68 73 70 68 61 47 48 49 37 28 58 71 71 59 45 38 37 23 26 34 26 26 24 29 27 39 40 23 27
42 49 48 48 49 51 54 57 59 58 60 61 61 62 64 67 67 66 72 74 74 46 40 36 41 27 37 25 37 41 50 52 32 27 18 24 23 21 31 30 34 29 34 39 34 23 34
42 45 50 47 49 52 55 55 58 55 64 65 62 62 63 65 69 70 68 69 40 30 18 28 30 34 39 19 33 30 31 43 39 34 29 35 18 39 57 49 41 42 40 42 38 31 28
37 40 45 45 51 49 52 53 59 58 63 64 63 63 63 63 64 67 54 31 41 38 29 56 63 76 70 53 13 33 34 40 38 38 42 14 43 61 41 39 45 45 44 53 37 8 14
41 43 43 44 62 54 54 57 62 59 64 64 63 62 63 61 63 47 27 43 47 45 16 52 70 70 92 53 40 30 49 52 38 46 42 47 52 42 44 39 44 47 49 44 41 12 22
45 44 49 47 55 58 55 60 63 64 63 65 64 62 66 63 45 32 52 32 36 43 13 34 28 31 65 73 42 65 63 34 14 28 52 35 60 43 47 53 50 46 48 43 34 20 25
47 50 53 56 54 57 57 66 68 64 68 69 68 64 63 51 59 49 44 44 41 33 17 16 30 10 7 64 42 43 68 64 22 23 13 29 38 45 37 59 51 39 27 26 35 31 23
50 49 56 56 57 59 64 69 64 67 72 74 70 67 65 59 52 53 45 35 31 13 22 10 6 1 11 33 30 17 46 50 21 24 16 31 15 33 42 38 38 3 5 5 2 9 18
51 51 58 58 56 60 68 65 69 71 73 77 72 70 68 60 59 48 39 23 15 16 20 15 35 29 11 12 14 19 18 23 23 16 26 18 12 5 10 20 9 23 19 9 11 11 15
53 54 57 60 62 64 63 65 67 75 77 78 79 79 78 59 50 37 31 11 36 22 24 33 43 35 25 10 14 7 15 35 41 40 26 31 20 25 22 22 21 50 39 15 18 14 15
54 55 58 64 64 61 67 69 70 76 81 89 83 90 66 55 41 29 23 23 23 27 33 30 33 38 35 33 14 11 13 10 16 43 29 19 25 22 40 24 35 15 26 13 6 2 2
54 59 63 64 65 64 68 72 72 78 78 88 93 65 57 25 17 31 13 45 25 32 38 30 33 13 14 13 12 13 11 10 9 21 45 17 29 29 17 10 4 13 25 9 9 11 12
58 59 61 62 62 63 69 67 68 73 74 80 65 21 25 25 17 17 16 25 22 37 36 12 27 39 39 39 19 13 11 14 15 9 21 6 9 9 18 19 35 13 12 11 4 8 9
60 62 62 62 65 64 68 69 71 73 67 67 27 12 25 28 11 12 15 7 7 14 24 23 26 33 31 23 29 24 31 33 14 8 8 13 5 7 16 9 8 29 14 28 14 14 9
62 62 61 65 64 68 69 71 71 65 63 58 19 34 23 18 11 16 23 13 13 14 21 9 10 11 8 18 10 15 23 12 25 12 9 8 8 9 1 2 1 12 14 23 5 5 22
60 62 66 65 66 69 70 73 68 65 65 45 12 9 16 20 26 26 30 25 16 20 24 19 21 24 20 17 20 19 27 16 8 18 25 9 8 11 12 2 6 17 29 26 21 13 16
64 67 65 65 63 68 70 68 67 62 53 33 6 9 14 12 18 28 33 24 33 13 13 8 7 17 22 10 8 17 26 22 8 13 11 8 9 9 3 1 7 4 23 32 31 37 20
63 63 68 68 65 70 72 68 64 55 47 32 11 14 16 35 36 27 29 10 25 25 7 12 20 22 16 16 20 31 34 23 19 11 8 7 4 7 6 4 7 9 18 31 39 37 35
64 65 66 62 70 72 71 66 65 53 44 31 25 34 21 23 24 17 16 11 14 11 16 25 18 18 17 21 17 33 35 25 16 10 12 6 7 8 4 1 4 13 22 26 25 26 32
66 69 69 65 72 72 73 71 62 52 43 39 37 36 21 17 17 25 33 35 35 29 26 31 23 9 8 22 28 17 10 5 0 6 5 4 7 3 5 5 9 5 3 3 25 2 16
62 70 71 71 73 78 71 69 57 51 44 40 36 34 18 15 22 31 28 22 33 26 25 27 35 23 22 15 8 10 8 7 3 7 7 4 6 6 7 10 6 4 5 6 3 3 8
64 71 73 74 73 74 71 64 55 54 51 40 37 34 29 11 6 11 21 31 12 14 15 7 17 17 11 6 5 6 2 5 2 1 2 3 5 3 4 7 4 6 9 9 6 2 12
65 72 76 75 75 74 68 60 59 62 53 37 35 28 25 13 31 14 9 11 10 8 9 9 13 8 10 5 6 4 1 5 2 6 6 3 4 3 1 4 7 8 9 8 2 7 6
64 74 78 77 76 68 62 57 61 63 38 28 25 25 26 15 33 18 16 11 12 7 9 15 14 6 5 7 5 4 4 3 2 2 5 7 6 3 0 3 5 2 2 6 5 3 4
69 75 80 79 70 63 55 50 46 33 7 14 19 21 19 39 17 20 19 18 14 12 11 10 13 12 10 6 2 1 2 2 4 3 2 2 7 6 9 7 2 4 2 6 4 6 10
Wind_Direction_850mb
26 23 19 10 10 7 2 2 4 358 356 350 348 351 348 339 341 335 330 323 313 308 293 289 273 271 273 252 251 277 269 281 278 223 214 207 210 213 228 235 248 234 254 246 237 229 228
19 19 16 11 8 4 2 0 1 359 355 352 348 341 340 336 332 330 328 324 322 313 294 282 262 263 249 249 257 256 272 265 255 226 214 211 217 223 254 249 236 220 248 244 241 233 232
16 15 13 6 5 1 1 359 357 358 356 353 349 343 332 325 325 324 323 319 316 308 297 279 260 254 242 245 259 266 268 263 245 232 225 221 219 216 225 255 241 244 254 240 238 234 233
11 9 8 2 358 357 355 353 351 351 350 349 347 346 339 334 326 320 314 314 311 309 294 280 265 252 249 259 262 248 260 250 246 236 228 236 221 230 240 260 216 233 237 250 234 216 217
1 358 0 359 356 356 353 348 345 344 344 343 342 340 337 335 328 323 319 312 310 306 295 278 269 244 254 250 238 254 254 239 240 230 223 227 206 221 198 222 233 220 242 229 241 213 190
356 0 0 359 352 348 343 340 337 341 338 335 335 334 332 331 328 326 320 320 316 310 287 273 251 260 235 223 238 236 233 219 207 191 197 200 203 216 218 208 220 219 221 242 238 181 209
355 352 351 348 346 342 337 338 336 334 331 333 334 334 330 325 325 323 321 325 334 312 294 256 278 246 276 224 235 234 205 195 203 198 198 194 208 217 221 218 230 241 243 239 245 244 211
351 345 341 339 342 338 333 332 331 330 329 332 333 335 331 324 321 319 319 311 310 302 282 273 268 271 262 262 271 227 192 185 194 209 209 169 221 228 234 238 232 240 248 253 259 196 223
343 338 332 333 338 332 331 330 327 327 325 325 330 332 330 323 315 322 314 313 314 310 268 278 259 254 253 246 231 223 194 204 205 220 207 205 224 220 234 231 237 230 232 239 248 189 242
339 332 328 329 335 334 330 327 326 322 324 327 329 331 330 329 321 309 310 308 313 322 273 270 240 252 232 226 244 219 211 213 226 225 221 226 245 237 220 224 219 232 227 237 237 244 245
326 325 330 326 325 329 332 328 321 325 323 323 326 325 324 323 305 300 301 300 310 313 266 269 223 240 242 208 211 212 209 209 200 197 161 209 234 221 217 223 210 235 233 238 234 234 246
330 328 321 327 328 329 327 324 322 321 323 322 321 319 318 314 302 295 289 290 305 234 249 275 289 246 269 207 235 247 183 200 221 224 204 246 273 219 208 223 220 139 93 79 159 206 229
329 328 320 324 327 326 323 324 320 323 323 321 319 316 308 306 290 295 285 295 253 234 329 260 264 260 257 274 243 200 183 178 184 192 206 195 208 204 216 194 135 160 155 202 204 205 230
326 323 320 317 325 326 324 319 321 321 322 322 317 312 303 297 296 284 266 233 256 258 255 279 299 293 274 295 255 221 212 204 216 225 240 218 211 167 187 193 180 191 194 208 217 203 218
326 325 324 323 319 324 319 322 323 321 323 324 320 313 296 296 287 271 223 245 245 254 256 278 297 283 278 261 211 272 226 261 227 214 223 228 235 182 177 187 169 163 211 222 133 210 191
326 325 321 324 324 322 321 325 326 322 326 326 323 310 297 299 285 239 246 231 244 256 278 292 277 269 277 322 287 220 207 179 232 222 231 245 254 197 166 141 295 201 161 173 213 185 224
325 325 322 323 319 321 321 324 324 326 327 327 338 318 299 294 276 227 246 264 258 265 268 273 263 264 268 283 293 340 306 298 223 202 223 276 253 121 143 204 177 172 169 203 209 223 216
324 324 326 322 324 319 321 322 324 324 325 328 334 302 297 299 286 242 255 213 194 253 262 246 256 261 271 284 293 289 256 238 187 187 211 202 329 174 229 357 326 234 200 192 205 196 244
324 324 323 321 323 321 322 323 326 326 329 323 298 297 281 277 281 287 292 246 237 237 244 252 277 271 235 270 278 303 297 309 279 224 239 157 204 166 57 295 296 217 199 215 196 80 202
323 321 321 321 321 323 323 324 328 325 323 314 304 299 270 219 259 269 284 288 264 232 260 250 262 282 285 258 249 262 276 302 305 247 254 172 229 253 232 320 142 205 203 205 205 205 193
323 325 322 320 319 320 321 323 326 324 327 316 265 269 288 288 292 303 297 282 281 280 219 235 251 248 270 275 276 254 270 297 228 246 225 229 248 210 106 25 309 289 210 198 212 220 209
320 323 320 321 318 319 322 324 323 321 322 306 262 292 285 286 286 286 291 284 296 298 224 264 235 274 255 267 274 295 292 292 280 191 221 200 219 156 215 177 235 241 231 206 212 228 238
324 321 320 322 317 320 322 322 318 319 320 292 281 293 274 287 294 289 294 298 300 326 277 256 293 300 282 274 283 290 271 276 266 295 212 216 186 170 169 168 203 259 235 201 219 231 231
319 317 321 319 318 322 322 319 314 310 306 291 284 285 267 294 291 293 292 301 297 293 292 292 298 277 324 316 298 262 245 225 252 49 340 275 210 212 96 196 232 34 307 345 226 117 267
318 318 322 322 322 321 319 318 314 310 304 289 281 273 268 285 298 292 309 310 302 288 282 288 284 278 302 312 259 238 197 221 156 46 9 316 177 162 213 209 345 134 52 50 169 146 357
318 318 322 322 323 319 319 316 315 308 301 291 273 273 268 290 291 319 295 292 312 318 295 242 296 296 291 258 280 289 339 356 356 40 5 46 39 320 196 239 215 14 23 43 302 345 352
318 318 321 323 322 320 320 317 313 303 294 276 267 259 263 261 284 285 301 336 314 294 278 286 334 286 241 266 270 271 203 333 333 343 353 14 33 14 286 357 76 19 49 43 91 22 355
321 318 322 323 321 321 320 320 320 321 265 249 257 255 241 258 287 270 282 301 307 289 307 345 305 189 248 248 296 37 294 88 262 30 350 338 331 55 333 227 105 100 168 321 349 327 309
319 321 323 322 319 320 320 324 331 342 320 241 250 268 259 250 275 289 278 277 277 292 303 302 299 294 347 289 53 303 266 252 0 55 174 35 22 7 0 32 12 244 353 322 317 342 342